Content
SEND FEEDBACK

Daily
Averages
Monthly
Summary
United States of America

D LO, MISSISSIPPI


Home > North America > United States > Mississippi
Elevation: 303 feet     Latitude: 31 57N     Longitude: 089 56W

WEATHER
 
SELECT A DAY
Number of Records: 217,146;   Date Range: 1/1/95 - 12/17/14
 
SHARE

PRINT THIS DATA

[ ← Previous Day ]
WEATHER ALMANAC - JANUARY 23, 2013
[ Next Day → ]
[ °C ]   °F
Weather ElementAverageHighLow
Temperature52.4 °F68 °F (2:54 pm)39 °F (1:54 am)
Dewpoint40.8 °F44.1 °F (10:54 am)35.1 °F (1:54 am)
Humidity66.9 %86 % (1:54 am)39 % (2:54 pm)
Barometer30.30 in30.37 in (8:54 am)30.24 in (4:54 pm)
Wind Speed3.9 mph8.1 mph (2:54 pm)
Weather ElementAverage
Visibility10 mi
Wind DirectionSE (140 °)

Weather ElementTotal
Precipitation---
Heating Degree Days11.5 (Base 65)
Growing Degree Days3.5 (Base 50)
Averaged from 23 records on January 23, 2013
WEATHER CONDITIONS BREAKOUT
WIND DIRECTION BREAKOUT
WEATHER BY HOUR - JANUARY 23, 2013
[ °C ]   °F
Local TimeTemperatureDewpointHumidityBarometerVisibilityWind DirectionWind SpeedGust SpeedPrecipitationEventsConditions
1:54 AM39.0 °F35.1 °F86 %30.32 in10.0 miCalmMostly Cloudy
2:54 AM41.0 °F36.0 °F82 %30.31 in10.0 miCalmMostly Cloudy
3:54 AM43.0 °F35.1 °F74 %30.31 in10.0 miCalmOvercast
4:54 AM42.1 °F36.0 °F79 %30.32 in10.0 miCalmOvercast
5:54 AM43.0 °F37.0 °F80 %30.33 in10.0 miSSE (160°)3.5 mphOvercast
6:54 AM45.0 °F37.9 °F76 %30.35 in10.0 miSouth (180°)3.5 mphOvercast
7:54 AM46.0 °F39.0 °F76 %30.35 in10.0 miSouth (170°)4.6 mphOvercast
8:54 AM48.0 °F41.0 °F77 %30.37 in10.0 miSouth (170°)4.6 mphOvercast
9:54 AM51.1 °F43.0 °F74 %30.37 in10.0 miSSW (210°)5.8 mphOvercast
10:54 AM57.0 °F44.1 °F62 %30.37 in10.0 miSW (220°)5.8 mphOvercast
11:54 AM60.1 °F44.1 °F55 %30.34 in10.0 miSW (220°)4.6 mphMostly Cloudy
12:54 PM64.9 °F42.1 °F43 %30.29 in10.0 miWSW (250°)6.9 mphPartly Cloudy
1:54 PM66.9 °F42.1 °F40 %30.27 in10.0 miVariable4.6 mphClear
2:54 PM68.0 °F42.1 °F39 %30.26 in10.0 miWest (260°)8.1 mphPartly Cloudy
3:54 PM68.0 °F42.8 °F40 %30.25 in10.0 miSSW (200°)6.9 mphPartly Cloudy
4:54 PM64.0 °F42.1 °F45 %30.24 in10.0 miSSW (200°)8.1 mphPartly Cloudy
5:54 PM55.9 °F44.1 °F64 %30.24 in10.0 miCalmMostly Cloudy
6:54 PM51.1 °F43.0 °F74 %30.24 in10.0 miSSE (160°)4.6 mphPartly Cloudy
7:54 PM50.0 °F42.1 °F74 %30.24 in10.0 miCalmClear
8:54 PM50.0 °F42.1 °F74 %30.25 in10.0 miSSW (200°)3.5 mphClear
9:54 PM48.9 °F41.0 °F74 %30.25 in10.0 miSSW (200°)4.6 mphClear
10:54 PM50.0 °F42.1 °F74 %30.26 in10.0 miSSW (210°)4.6 mphClear
11:54 PM51.1 °F44.1 °F77 %30.26 in10.0 miSSW (210°)5.8 mphClear
Hourly data recorded from KJAN, located miles away from D Lo, Mississippi







STORIES FROM OUR PARTNERS